Cloud_Cover
100 100 71 1 0 0 0 0 0 0 0 0 0 12 15 30 11 5 10 1 4 4 0 9 36 0 0 0 0 0 0 0 0 0 0 0 0 0 0 0 2 97 69 5 5 8 81
100 100 87 0 0 0 0 0 0 0 0 0 16 10 21 16 14 11 4 9 2 8 0 1 23 13 0 0 0 0 0 0 0 0 0 0 0 0 0 0 28 23 7 5 5 5 26
100 100 89 0 0 0 0 0 0 0 0 6 15 20 40 14 11 0 0 0 2 0 0 1 2 0 0 0 0 0 0 0 0 0 0 0 0 0 0 0 6 0 0 0 0 5 59
100 100 85 4 0 0 0 0 0 0 11 17 14 20 17 6 1 0 1 0 0 0 0 0 6 0 0 0 0 0 0 0 0 0 0 0 0 0 0 0 0 0 0 0 0 5 5
100 86 44 2 0 0 0 0 1 19 13 20 30 45 8 2 0 0 0 0 0 0 0 0 1 0 0 0 0 0 0 0 0 0 0 0 0 0 0 0 0 0 0 0 0 5 5
100 24 0 0 0 0 0 18 61 100 24 24 18 3 0 0 0 3 4 0 0 0 1 0 0 0 0 0 0 0 0 0 0 0 0 0 0 0 0 0 0 0 0 0 5 22 55
0 0 0 0 10 50 71 100 100 99 2 0 0 0 0 0 10 38 60 0 0 0 0 0 0 0 0 0 0 0 0 0 0 0 0 0 0 0 0 0 0 0 0 4 5 5 3
0 0 4 40 39 99 100 100 100 82 0 0 0 0 0 15 33 22 61 0 0 0 0 0 0 0 0 0 0 0 0 0 0 0 0 0 0 0 0 0 0 0 0 5 77 43 0
0 0 0 1 78 100 100 57 100 5 1 0 0 5 29 24 11 1 0 0 0 0 0 0 0 0 0 0 0 0 0 0 0 0 0 0 0 0 0 0 0 0 0 69 51 5 0
2 9 60 0 100 100 100 90 100 5 2 4 1 20 26 80 0 0 0 0 0 5 5 0 2 0 0 0 0 0 0 0 0 0 0 0 0 0 0 0 0 0 0 9 3 1 0
0 36 87 57 81 38 25 100 100 15 4 0 5 23 19 58 5 0 3 5 5 42 89 5 8 6 0 0 0 0 0 0 0 0 0 0 0 0 0 0 0 0 0 0 0 0 0
39 5 61 62 57 42 5 100 100 39 0 0 0 9 70 13 3 0 5 46 100 98 100 72 28 32 4 0 0 0 0 0 0 0 0 0 0 0 0 0 0 0 0 0 0 0 0
4 3 30 88 100 100 4 100 100 2 1 0 0 0 85 0 0 37 100 100 100 98 79 91 100 100 66 5 2 0 0 0 0 0 0 0 0 0 0 0 0 0 0 0 0 0 0
0 26 100 100 100 100 27 100 100 5 1 0 0 0 1 0 0 0 100 78 84 99 94 50 15 25 82 67 5 0 0 0 0 0 0 0 0 0 0 0 0 0 0 0 0 0 0
5 29 100 100 100 100 50 100 80 38 0 0 0 2 0 5 4 7 99 33 23 82 93 76 97 73 5 84 31 5 0 0 0 0 0 0 0 0 0 0 0 0 0 0 0 0 0
5 84 100 100 100 52 100 100 100 39 8 11 0 2 2 5 41 14 100 100 96 75 48 93 88 47 5 49 97 47 0 0 0 0 0 0 0 0 0 0 0 0 0 0 0 0 0
5 68 100 100 78 11 100 100 100 1 14 0 1 5 84 5 95 80 100 100 100 100 100 64 58 100 94 100 96 100 98 63 12 0 0 0 0 0 0 0 0 0 0 0 0 0 0
5 17 80 95 39 56 100 100 100 0 15 2 0 3 21 95 80 100 100 100 100 100 100 100 96 81 99 95 48 77 100 15 91 46 5 4 1 0 0 0 0 0 0 0 0 0 0
99 100 96 99 89 100 100 100 100 5 67 39 0 0 36 95 100 97 100 100 100 95 95 100 100 100 100 59 3 45 68 72 100 100 100 43 24 24 0 0 0 0 0 0 0 0 0
99 100 100 100 98 100 100 100 100 44 0 0 0 0 0 71 100 62 70 100 100 100 100 100 76 9 2 5 0 0 23 96 100 100 100 100 100 100 81 5 2 0 0 0 0 0 0
90 99 100 100 100 100 100 100 100 85 0 0 0 0 0 0 98 100 95 29 100 100 100 100 100 99 96 11 0 0 0 10 91 53 23 45 55 100 100 47 5 5 5 0 0 0 0
95 100 96 100 100 100 100 100 100 1 0 0 0 0 0 0 0 99 100 100 100 100 97 100 100 100 100 99 5 0 3 5 2 2 27 62 60 79 100 100 90 5 5 4 0 0 0
64 100 100 100 100 100 100 100 100 1 12 0 0 0 0 0 0 0 20 48 52 90 90 5 41 98 99 84 50 5 0 0 2 0 0 0 9 24 74 100 100 100 7 5 1 0 0
99 100 100 100 100 100 100 94 73 30 10 0 0 0 0 0 0 0 0 0 1 5 7 5 5 4 1 2 4 5 5 0 0 0 0 0 0 0 6 92 100 98 7 5 5 0 0
100 100 100 100 100 100 100 100 100 100 5 0 0 0 0 0 0 0 0 0 0 0 0 0 0 0 0 0 0 1 2 3 5 5 1 0 0 0 0 4 2 15 100 82 19 4 0
100 100 100 100 100 100 100 100 100 70 0 0 0 0 0 0 0 0 0 0 0 0 0 3 0 0 0 0 0 5 6 5 5 4 5 0 0 0 16 5 5 1 1 0 5 5 0
100 100 100 100 100 100 100 100 100 0 0 0 0 0 0 0 0 0 0 0 0 0 0 0 1 0 1 0 6 4 55 16 5 5 5 12 20 3 5 10 4 0 0 2 4 4 4
100 100 100 100 100 100 100 98 58 1 0 0 0 0 0 0 0 0 0 0 0 0 4 5 2 0 0 6 8 39 5 53 25 5 10 11 75 49 56 59 36 5 3 4 22 0 0
100 100 100 100 100 100 100 100 100 0 0 0 0 0 0 0 0 0 0 0 0 0 0 0 0 2 5 22 32 18 75 95 83 55 5 27 8 14 13 4 4 5 5 4 4 4 2